Location: Rounton
(54.4000°N, 1.3500°W)
Time: 14:28:39
(UTC+00:00)

Altair - Pass Details

Date: 05 December 2021
Orbit: 1501 x 1683 km, 47.2° (Epoch: 19 January)

Event Time Altitude Azimuth Distance (km) Brightness Sun altitude
Rises 14:53:22 0° 211° (SSW) 4,788 12.5 4.3°
Reaches altitude 10° 14:56:56 10° 202° (SSW) 3,777 11.2 3.9°
Maximum altitude 15:04:54 31° 145° (SE) 2,436 8.8 3.2°
Drops below altitude 10° 15:12:40 10° 87° (E) 3,683 9.1 2.4°
Sets 15:16:04 0° 78° (ENE) 4,653 9.5 2.0°
